Location: Maccacari
(45.1333°N, 11.1333°E)
Time: 08:38:18
(UTC+00:00)

Cosmos 1891 Rocket - Pass Details

Date: 18 September 2020
Orbit: 934 x 1018 km, 82.9° (Epoch: 30 October)

Event Time Altitude Azimuth Distance (km) Brightness Sun altitude
Rises 18:24:08 0° 175° (S) 3,649 7.3 -12.0°
Reaches altitude 10° 18:26:40 10° 172° (S) 2,694 6.6 -12.4°
Maximum altitude 18:32:43 62° 93° (E) 1,064 4.4 -13.5°
Drops below altitude 10° 18:38:42 10° 15° (NNE) 2,666 6.8 -14.5°
Sets 18:41:12 0° 12° (NNE) 3,609 7.6 -14.9°
